Wind_Speed
7 7 7 6 5 5 4 4 3 3 4 4 4 4 3 3 3 3 3 3 3 3 4 3 3 3 3 2 3 4 5 5 6 6 6 7 6 7 7 7 7 7 6
7 7 6 6 5 4 4 3 3 3 3 3 3 3 3 3 3 3 3 3 3 3 3 3 3 3 3 3 3 4 5 5 5 6 6 6 7 7 7 7 6 7 7
7 6 6 5 5 4 3 3 2 2 2 2 2 2 2 2 2 2 2 2 2 3 3 3 2 2 3 4 4 4 5 5 6 6 6 6 6 7 7 6 7 7 7
7 7 6 5 4 3 3 2 2 2 2 2 1 1 2 1 1 1 1 2 3 3 2 2 2 2 3 3 4 4 4 5 5 7 7 5 5 6 6 6 6 7 8
7 7 7 5 4 3 3 2 2 1 2 1 1 1 1 1 1 1 1 1 2 3 2 2 2 2 3 3 3 4 5 5 5 6 6 5 6 5 6 7 6 7 8
8 7 7 5 4 3 3 2 2 1 1 1 1 1 1 1 1 1 1 2 3 3 3 3 3 3 3 3 3 3 4 3 4 5 6 6 6 5 6 7 7 7 7
8 8 7 6 5 4 3 3 3 2 2 1 1 1 1 2 2 2 1 2 4 4 4 3 3 3 2 2 2 3 4 3 3 4 5 5 5 5 6 7 7 7 7
8 8 7 6 5 4 4 4 3 3 2 2 2 2 2 2 2 2 1 1 3 4 4 4 3 3 2 2 3 2 3 4 5 5 6 6 6 5 6 6 6 7 7
8 8 7 7 6 5 4 4 4 3 2 2 3 3 3 2 2 2 1 1 2 3 4 4 4 3 3 3 3 3 3 4 5 6 6 6 6 6 7 7 7 7 7
8 8 7 7 6 5 5 5 4 4 3 4 4 3 3 2 2 3 2 2 2 3 3 4 4 4 4 4 4 4 4 4 5 5 6 7 7 7 7 7 7 7 7
8 8 8 7 7 6 6 5 5 5 5 4 4 4 4 4 4 4 4 3 3 3 3 4 4 5 5 5 5 5 5 5 6 6 6 6 7 8 8 8 8 9 8
9 9 8 8 7 7 6 6 6 6 5 5 5 5 5 5 5 5 5 4 4 4 4 4 5 5 6 6 6 6 6 7 7 7 7 7 8 8 8 9 9 9 10
9 9 9 8 8 8 7 6 6 6 6 6 6 6 6 6 7 7 6 6 5 6 6 6 6 6 7 7 8 8 8 9 8 9 9 9 9 9 10 10 10 10 10
10 9 9 9 9 8 7 7 6 7 7 7 7 7 8 8 8 8 8 8 7 7 8 8 8 8 8 8 9 9 9 9 9 10 10 10 11 11 11 11 11 11 10
10 9 10 10 9 9 9 9 8 8 8 8 9 8 8 8 8 8 9 9 9 8 9 9 10 10 9 9 9 9 10 10 10 11 11 11 11 12 12 12 13 12 11
10 10 10 10 10 10 9 9 9 9 9 8 8 8 9 9 9 9 9 9 9 9 10 10 10 11 10 10 10 11 11 11 11 12 12 12 12 12 12 12 12 12 13
10 10 11 10 10 10 10 10 9 10 10 10 10 9 10 10 11 10 10 10 10 10 10 11 11 12 12 11 11 11 12 12 12 13 13 12 13 13 13 13 13 13 13
11 11 11 11 10 10 10 11 11 11 11 12 11 11 11 11 12 12 11 11 12 12 12 12 12 12 13 13 12 12 12 12 12 13 13 13 13 13 14 15 14 14 15
12 12 12 12 12 12 12 13 13 13 13 13 13 13 13 13 13 13 12 12 13 13 13 13 13 13 13 13 12 13 13 13 13 13 13 14 14 14 15 15 16 16 16
14 14 14 14 14 14 14 14 15 14 14 14 14 14 14 14 14 14 13 13 14 14 14 14 13 13 14 13 14 14 14 14 14 14 14 14 14 15 16 16 16 17 18
15 15 15 15 15 15 15 15 15 15 15 15 16 16 16 15 15 15 14 14 14 14 14 15 15 15 15 14 14 14 14 15 15 15 15 14 15 16 16 17 17 18 19
17 16 16 16 16 16 17 17 17 17 16 16 16 16 16 16 15 15 14 14 14 15 15 15 15 15 16 16 16 16 15 15 16 16 17 17 17 17 17 17 18 19 19
18 17 17 17 17 17 18 19 18 17 17 16 16 16 16 16 15 15 15 15 15 15 15 15 16 16 16 16 17 17 17 17 18 18 18 19 19 19 19 20 20 20 20
18 19 18 18 17 18 18 18 16 16 16 16 16 16 16 16 16 16 16 16 16 16 16 16 17 17 17 17 17 18 18 18 18 19 20 20 20 20 21 22 22 22 22
19 19 20 19 18 19 18 17 16 16 15 16 16 15 16 16 16 16 16 16 16 17 17 17 17 18 18 17 18 18 19 20 20 20 20 20 21 22 23 23 23 23 23
20 20 21 20 19 19 19 17 16 16 16 15 16 16 16 16 16 16 17 17 17 17 18 18 18 18 19 19 18 19 20 20 20 21 21 21 22 23 23 24 24 24 24
Wind_Direction
18 20 26 28 29 29 31 34 35 49 63 70 66 64 63 65 73 93 116 117 120 134 142 149 157 175 185 201 203 191 192 191 187 180 181 187 187 191 190 200 208 206 202
13 10 13 17 20 21 24 28 33 50 59 61 54 57 61 65 75 92 115 127 129 139 144 154 169 176 187 208 212 197 186 189 196 192 194 195 199 203 199 204 205 205 202
6 3 5 4 6 10 18 22 32 43 44 45 40 48 61 65 77 87 113 136 150 150 157 167 176 190 201 211 214 210 189 186 198 196 206 211 209 212 212 208 208 212 210
359 357 359 358 357 359 4 7 23 36 34 33 37 60 63 55 55 68 122 148 153 156 160 176 183 202 218 216 211 207 201 198 202 197 207 210 212 214 217 215 211 214 214
355 352 352 354 351 345 340 338 347 12 29 41 41 46 48 23 348 337 253 186 171 181 177 182 185 201 222 227 211 207 202 211 221 216 223 223 213 214 221 225 223 220 219
352 349 349 348 345 337 326 322 318 326 343 5 360 357 355 343 341 337 272 219 189 191 192 199 204 214 223 223 220 227 219 218 227 228 227 221 213 217 226 230 223 220 221
346 343 340 338 334 329 317 307 308 293 285 282 296 300 315 316 330 326 276 227 208 203 198 202 211 214 217 228 237 238 234 234 245 227 221 225 224 222 229 234 227 225 223
336 334 331 327 323 319 311 299 297 295 279 272 279 284 292 306 309 322 328 221 200 198 199 198 206 203 205 220 226 232 241 238 231 227 238 239 242 239 243 237 236 229 227
332 326 323 321 314 308 301 295 293 294 271 273 272 273 280 285 298 278 249 201 201 205 195 196 205 211 209 219 229 244 246 241 239 237 242 238 243 252 252 239 236 233 234
322 320 318 317 315 308 301 292 285 281 276 266 268 265 266 271 272 261 247 235 210 199 200 206 215 225 223 226 238 255 255 253 259 255 254 253 251 252 250 244 243 235 236
311 310 309 306 304 301 297 292 284 280 278 268 260 259 263 268 269 262 257 253 240 222 212 219 225 229 229 233 244 250 256 262 266 268 271 263 256 253 251 249 247 237 243
305 301 300 299 296 297 294 294 284 279 277 269 260 261 263 270 269 266 258 253 246 239 235 235 233 236 237 244 250 254 258 260 264 264 264 264 260 255 253 251 248 243 247
300 300 296 294 294 292 290 291 284 279 277 273 265 260 260 267 270 264 259 251 249 246 247 246 243 244 248 251 253 256 259 261 262 263 263 263 262 257 255 254 248 247 248
300 292 291 290 290 290 287 287 280 275 278 278 273 267 263 262 265 265 263 257 255 250 249 248 248 252 253 254 257 259 258 261 262 263 263 263 266 263 258 259 253 250 246
294 288 284 282 280 281 285 290 281 273 275 280 276 272 265 261 262 262 262 259 257 254 252 252 252 253 251 250 257 260 260 262 264 266 264 265 268 269 262 258 254 253 251
290 288 283 279 276 277 282 287 283 274 275 279 278 270 264 261 262 262 257 257 256 254 254 254 254 253 256 257 260 260 260 263 264 266 264 263 268 266 264 260 256 256 255
287 286 282 281 279 277 280 279 279 277 277 277 276 272 267 262 259 259 257 256 255 254 254 256 257 256 260 262 263 262 261 263 264 262 263 264 264 261 261 260 259 258 260
282 284 283 282 282 279 280 281 280 279 278 276 274 271 269 263 260 259 258 257 255 255 255 258 260 260 262 264 263 261 260 262 263 260 261 264 263 260 260 259 259 260 262
279 280 280 280 280 281 283 284 282 278 275 274 272 270 269 266 261 259 258 256 253 255 257 257 256 259 262 264 263 261 260 262 262 262 263 265 263 262 263 262 260 260 262
276 280 280 282 284 283 284 283 282 279 274 273 271 270 268 265 262 259 257 256 256 255 257 257 255 257 261 263 263 263 262 262 261 261 263 265 265 264 263 262 260 258 261
277 281 284 284 286 286 286 286 280 278 273 269 269 271 269 267 264 260 258 256 257 258 259 257 255 256 258 262 263 264 265 263 261 262 263 264 264 265 265 264 263 259 256
276 280 286 286 286 287 288 288 280 276 272 270 270 269 268 268 266 262 259 258 259 260 259 258 256 256 258 260 262 264 265 264 265 266 266 264 263 264 264 265 266 263 258
273 278 281 282 284 288 288 286 280 273 271 270 269 268 266 266 265 263 261 259 259 259 259 259 257 259 258 259 262 264 265 264 265 266 265 265 265 264 265 267 268 267 265
271 275 279 280 284 286 287 286 282 275 270 269 268 266 264 264 264 263 263 262 262 260 258 259 260 261 262 263 265 267 268 267 268 267 267 266 265 266 266 266 267 267 267
270 273 277 278 283 287 288 286 284 276 271 269 269 268 265 264 264 263 262 261 261 261 260 259 262 264 266 269 269 269 270 270 270 268 269 267 266 265 265 266 267 267 267
268 270 273 274 280 286 287 283 280 274 270 268 267 266 267 267 265 265 263 261 260 261 261 261 262 265 268 269 269 270 271 271 270 269 269 269 267 266 266 267 267 268 266
Height
5889 5888 5887 5886 5885 5884 5883 5883 5882 5881 5880 5879 5878 5878 5877 5877 5876 5875 5876 5876 5876 5877 5877 5877 5877 5878 5878 5878 5878 5878 5879 5879 5880 5881 5881 5882 5883 5884 5884 5885 5886 5887 5887
5889 5888 5886 5886 5885 5884 5883 5882 5882 5881 5880 5879 5878 5878 5877 5877 5876 5876 5876 5876 5876 5876 5877 5877 5877 5878 5878 5878 5878 5878 5878 5879 5880 5880 5881 5882 5883 5883 5884 5885 5886 5886 5887
5889 5887 5886 5885 5884 5883 5883 5882 5881 5881 5880 5879 5878 5878 5877 5876 5876 5876 5876 5876 5876 5876 5877 5877 5877 5878 5878 5878 5878 5878 5878 5879 5879 5880 5881 5881 5882 5883 5883 5884 5885 5886 5886
5889 5887 5886 5885 5884 5883 5882 5882 5881 5880 5879 5879 5878 5877 5877 5876 5876 5876 5876 5876 5876 5876 5876 5877 5877 5877 5877 5878 5878 5878 5878 5879 5879 5880 5881 5881 5882 5882 5883 5884 5884 5885 5886
5888 5887 5886 5884 5884 5883 5882 5881 5880 5880 5879 5878 5878 5877 5877 5876 5876 5875 5875 5875 5875 5876 5876 5876 5877 5877 5877 5877 5877 5878 5878 5878 5879 5879 5880 5881 5881 5882 5883 5883 5884 5885 5885
5888 5886 5885 5884 5883 5882 5881 5880 5880 5879 5879 5878 5877 5877 5876 5876 5875 5875 5875 5874 5875 5875 5875 5876 5876 5876 5877 5876 5877 5877 5878 5878 5879 5879 5879 5880 5880 5881 5882 5882 5883 5884 5885
5887 5886 5885 5884 5883 5882 5881 5880 5879 5878 5878 5877 5877 5877 5876 5876 5875 5874 5874 5874 5874 5874 5875 5875 5876 5876 5876 5877 5877 5877 5877 5878 5878 5878 5879 5879 5880 5880 5881 5881 5882 5883 5884
5886 5885 5884 5883 5882 5881 5880 5879 5878 5877 5877 5877 5876 5876 5876 5875 5875 5874 5874 5873 5873 5874 5874 5875 5876 5876 5876 5876 5877 5877 5877 5878 5878 5878 5878 5879 5879 5880 5880 5881 5881 5882 5883
5885 5884 5883 5882 5881 5880 5879 5878 5877 5877 5876 5876 5875 5875 5875 5875 5874 5874 5874 5873 5873 5874 5874 5875 5875 5875 5876 5876 5876 5876 5877 5877 5877 5877 5878 5878 5878 5879 5879 5879 5880 5881 5881
5884 5883 5882 5881 5880 5879 5878 5877 5876 5876 5875 5875 5874 5874 5874 5874 5874 5873 5873 5873 5873 5873 5874 5874 5875 5875 5876 5876 5876 5876 5876 5876 5877 5877 5877 5877 5878 5878 5878 5879 5879 5880 5880
5883 5882 5881 5880 5879 5878 5877 5876 5875 5874 5874 5873 5873 5873 5873 5873 5873 5872 5872 5872 5873 5873 5873 5874 5874 5875 5875 5875 5875 5875 5875 5876 5876 5876 5876 5876 5877 5877 5877 5878 5878 5879 5879
5882 5881 5880 5879 5877 5876 5875 5874 5873 5873 5872 5872 5872 5872 5872 5872 5871 5871 5871 5872 5872 5872 5873 5873 5873 5874 5874 5874 5875 5874 5874 5875 5875 5875 5875 5876 5876 5876 5876 5876 5877 5877 5877
5880 5879 5878 5877 5876 5875 5874 5873 5872 5871 5871 5871 5871 5870 5870 5870 5870 5870 5870 5870 5871 5871 5871 5872 5872 5873 5873 5873 5873 5873 5873 5873 5873 5874 5874 5874 5874 5874 5874 5875 5875 5876 5876
5878 5877 5877 5876 5875 5874 5873 5871 5870 5870 5870 5869 5869 5869 5869 5869 5869 5869 5869 5869 5869 5870 5870 5870 5871 5871 5871 5872 5872 5872 5872 5872 5872 5872 5872 5872 5872 5872 5872 5873 5873 5873 5874
5877 5876 5875 5874 5873 5872 5871 5870 5869 5868 5868 5868 5867 5867 5867 5867 5867 5867 5867 5867 5868 5868 5868 5868 5869 5869 5869 5869 5870 5870 5870 5870 5870 5870 5870 5870 5870 5870 5870 5870 5871 5871 5872
5875 5874 5873 5872 5871 5870 5869 5868 5867 5866 5866 5865 5865 5865 5865 5865 5865 5865 5865 5865 5866 5866 5866 5866 5867 5867 5867 5867 5867 5868 5868 5867 5867 5868 5868 5868 5868 5868 5868 5868 5868 5869 5869
5873 5872 5870 5869 5868 5868 5867 5866 5865 5865 5864 5864 5863 5862 5862 5862 5862 5863 5863 5863 5863 5863 5864 5864 5864 5865 5865 5865 5865 5865 5865 5865 5865 5865 5865 5865 5865 5865 5865 5865 5866 5866 5866
5870 5869 5868 5867 5866 5865 5864 5864 5863 5862 5861 5861 5860 5859 5859 5859 5859 5859 5860 5860 5860 5861 5861 5861 5862 5862 5862 5862 5862 5862 5862 5862 5862 5862 5862 5862 5862 5862 5862 5862 5863 5863 5864
5868 5867 5866 5865 5864 5863 5862 5861 5860 5859 5858 5857 5857 5856 5856 5856 5856 5856 5857 5857 5857 5858 5858 5858 5859 5859 5859 5859 5859 5859 5859 5859 5859 5859 5859 5859 5859 5859 5859 5859 5860 5860 5861
5865 5864 5863 5862 5861 5859 5858 5857 5856 5855 5854 5854 5853 5853 5852 5852 5853 5853 5853 5854 5854 5855 5855 5855 5856 5856 5856 5856 5856 5856 5856 5855 5856 5856 5856 5856 5856 5856 5856 5856 5856 5856 5857
5862 5861 5860 5859 5858 5856 5855 5854 5853 5851 5850 5849 5849 5849 5849 5849 5849 5849 5849 5850 5850 5851 5851 5852 5852 5852 5853 5852 5852 5852 5852 5852 5852 5852 5852 5852 5852 5852 5852 5852 5852 5852 5853
5859 5858 5856 5855 5854 5853 5852 5850 5849 5847 5846 5845 5845 5844 5844 5845 5845 5845 5846 5846 5847 5847 5848 5848 5848 5849 5849 5849 5849 5849 5849 5849 5849 5848 5848 5848 5848 5848 5848 5848 5848 5848 5848
5854 5853 5852 5851 5850 5849 5847 5846 5844 5842 5841 5841 5841 5840 5840 5840 5841 5841 5842 5842 5843 5843 5844 5844 5845 5845 5845 5845 5845 5845 5845 5845 5845 5845 5844 5844 5844 5844 5844 5844 5843 5843 5843
5849 5849 5848 5847 5846 5845 5843 5841 5840 5838 5837 5837 5837 5836 5836 5836 5837 5838 5838 5838 5839 5839 5840 5840 5840 5841 5841 5841 5841 5840 5840 5840 5840 5840 5840 5839 5839 5839 5839 5839 5839 5839 5839
5845 5844 5843 5842 5841 5840 5839 5837 5836 5834 5834 5833 5832 5832 5832 5833 5833 5833 5833 5834 5834 5835 5835 5836 5836 5836 5836 5836 5836 5836 5835 5835 5834 5834 5835 5834 5834 5834 5834 5833 5833 5833 5833
5839 5839 5838 5838 5837 5835 5834 5833 5832 5831 5830 5830 5829 5829 5829 5828 5829 5829 5829 5829 5830 5830 5830 5831 5831 5831 5831 5831 5830 5830 5830 5830 5829 5829 5829 5828 5828 5828 5828 5828 5827 5827 5827